Wolf Point, MT

8:54 PM MDT on August 23, 2016 (GMT -0600)
Clayton

Weather History for KOLF - July, 2013

Change the Weather History Date:

Saturday, July 27, 2013

  Actual Average Record
Temperature  
Mean Temperature 63 °F -  
Max Temperature 80 °F 88 °F 104 °F (2006)
Min Temperature 46 °F 56 °F 46 °F (2013)
Degree Days  
Heating Degree Days 2    
Cooling Degree Days 0    
Growing Degree Days 13 (Base 50)    
Moisture  
Dew Point 45 °F    
Average Humidity 55    
Maximum Humidity 86    
Minimum Humidity 30    
Precipitation  
Precipitation 0.00 in 0.07 in 0.52 in (2016)
Month to date precipitation 0.93 1.74  
Year to date precipitation 9.65 8.15  
Sea Level Pressure  
Sea Level Pressure 30.06 in    
Wind  
Wind Speed 9 mph (East)    
Max Wind Speed 16 mph    
Max Gust Speed 25 mph    
Visibility 10 miles    
Events      
T = Trace of Precipitation, MM = Missing Value Source: NWS Daily Summary

Daily Weather History Graph

Daily Weather History Graph

Search for Another Location

Airport or City:

Trip Planner

Search our weather history database for the weather conditions in past years. The results will help you decide how hot, cold, wet, or windy it might be!

Date:

Astronomy

Jul. 27, 2013 Rise Set
Actual Time 5:32 AM MDT 8:44 PM MDT
Civil Twilight 4:54 AM MDT 9:21 PM MDT
Nautical Twilight 4:05 AM MDT 10:10 PM MDT
Astronomical Twilight 3:04 AM MDT 11:11 PM MDT
Moon 10:59 PM MDT (7/27) 11:47 AM MDT (7/27)
Length of Visible Light 16h 26m
Length of Day
15h 12m
Waning Gibbous, 70% of the Moon is Illuminated
Jul 27
Waning Gibbous
Jul 29
Last Quarter
Aug 6
New
Aug 14
First Quarter
Aug 20
Full

Hourly Weather History & Observations

Time (MDT) Temp. Windchill Dew Point Humidity Pressure Visibility Wind Dir Wind Speed Gust Speed Precip Events Conditions
12:53 AM 48.9 °F - 44.1 °F 83% 30.23 in 10.0 mi ENE 8.1 mph - N/A   Clear
1:53 AM 48.0 °F - 43.0 °F 83% 30.22 in 10.0 mi ENE 5.8 mph - N/A   Clear
2:53 AM 46.9 °F - 43.0 °F 86% 30.21 in 10.0 mi ENE 5.8 mph - N/A   Clear
3:53 AM 46.9 °F - 42.1 °F 83% 30.20 in 10.0 mi ENE 5.8 mph - N/A   Clear
4:53 AM 46.0 °F 42.5 °F 42.1 °F 86% 30.20 in 10.0 mi ENE 6.9 mph - N/A   Clear
5:53 AM 46.0 °F 42.5 °F 42.1 °F 86% 30.19 in 10.0 mi ENE 6.9 mph - N/A   Clear
6:53 AM 48.9 °F - 44.1 °F 83% 30.18 in 10.0 mi ENE 9.2 mph - N/A   Clear
7:53 AM 57.0 °F - 44.1 °F 62% 30.15 in 10.0 mi East 10.4 mph - N/A   Clear
8:53 AM 63.0 °F - 44.1 °F 50% 30.13 in 10.0 mi ESE 12.7 mph 19.6 mph N/A   Clear
9:53 AM 66.9 °F - 44.1 °F 44% 30.11 in 10.0 mi SE 11.5 mph 19.6 mph N/A   Clear
10:53 AM 70.0 °F - 45.0 °F 41% 30.09 in 10.0 mi SE 11.5 mph 24.2 mph N/A   Clear
11:53 AM 72.0 °F - 45.0 °F 38% 30.07 in 10.0 mi ESE 16.1 mph 24.2 mph N/A   Clear
12:53 PM 75.0 °F - 45.0 °F 34% 30.04 in 10.0 mi SE 6.9 mph 19.6 mph N/A   Clear
1:53 PM 75.9 °F - 45.0 °F 33% 30.02 in 10.0 mi ESE 13.8 mph 24.2 mph N/A   Clear
2:53 PM 77.0 °F - 46.0 °F 33% 29.99 in 10.0 mi SSE 11.5 mph 25.3 mph N/A   Clear
3:53 PM 79.0 °F - 46.0 °F 31% 29.96 in 10.0 mi ESE 13.8 mph 21.9 mph N/A   Clear
4:53 PM 80.1 °F - 46.0 °F 30% 29.95 in 10.0 mi ESE 11.5 mph 21.9 mph N/A   Clear
5:53 PM 79.0 °F - 46.9 °F 32% 29.93 in 10.0 mi SE 9.2 mph 18.4 mph N/A   Clear
6:53 PM 77.0 °F - 48.0 °F 36% 29.92 in 10.0 mi ESE 10.4 mph - N/A   Clear
7:53 PM 75.0 °F - 48.0 °F 38% 29.91 in 10.0 mi ESE 11.5 mph - N/A   Clear
8:53 PM 70.0 °F - 46.9 °F 44% 29.92 in 10.0 mi East 8.1 mph - N/A   Clear
9:53 PM 64.0 °F - 46.9 °F 54% 29.93 in 10.0 mi ENE 8.1 mph - N/A   Clear
10:53 PM 59.0 °F - 45.0 °F 60% 29.94 in 10.0 mi NE 9.2 mph - N/A   Clear
11:53 PM 59.0 °F - 44.1 °F 58% 29.93 in 10.0 mi ENE 10.4 mph - N/A   Clear